Total_Precipitation_Accumulation
0.09 0.08 0.07 0.06 0.05 0.04 0.03 0.03 0.02 0.02 0.01 0.01 0.01 0.01 0.01 0.01 0.01 0.02 0.02 0.03 0.03 0.04 0.05 0.06 0.07 0.07 0.08 0.07 0.07 0.08 0.09 0.14 0.18 0.09 0.04 0.04 0.07 0.10 0.12 0.16 0.15 0.14 0.12
0.07 0.06 0.05 0.04 0.03 0.02 0.02 0.02 0.01 0.01 0.01 0.01 0.01 0.01 0.01 0.01 0.01 0.02 0.03 0.03 0.05 0.05 0.05 0.05 0.05 0.06 0.08 0.07 0.07 0.07 0.08 0.13 0.21 0.20 0.12 0.09 0.10 0.12 0.16 0.17 0.12 0.10 0.12
0.05 0.04 0.03 0.02 0.02 0.01 0.01 0.01 0.01 0.01 0.01 0.01 0.01 0.01 0.01 0.01 0.02 0.03 0.04 0.04 0.04 0.03 0.03 0.04 0.04 0.05 0.06 0.07 0.08 0.09 0.11 0.14 0.20 0.24 0.17 0.13 0.11 0.10 0.17 0.19 0.18 0.21 0.13
0.03 0.02 0.02 0.02 0.02 0.02 0.01 0.01 0.02 0.01 0.01 0.01 0.01 0.01 0.01 0.02 0.02 0.02 0.02 0.01 0.01 0.01 0.02 0.03 0.04 0.06 0.09 0.12 0.11 0.12 0.15 0.18 0.19 0.22 0.18 0.14 0.12 0.12 0.21 0.29 0.26 0.21 0.17
0.02 0.02 0.03 0.03 0.03 0.03 0.03 0.02 0.02 0.02 0.01 0.01 0.01 0.01 0.01 0.01 0.01 0.00 0.00 0.00 0.01 0.01 0.02 0.03 0.04 0.06 0.11 0.14 0.14 0.16 0.20 0.23 0.24 0.27 0.25 0.19 0.15 0.18 0.26 0.30 0.28 0.20 0.15
0.06 0.06 0.06 0.06 0.06 0.05 0.04 0.03 0.03 0.03 0.02 0.02 0.01 0.01 0.01 0.00 0.00 0.00 0.00 0.00 0.01 0.02 0.03 0.04 0.04 0.04 0.07 0.08 0.10 0.14 0.21 0.26 0.31 0.34 0.31 0.25 0.18 0.24 0.32 0.36 0.36 0.30 0.21
0.12 0.12 0.11 0.10 0.08 0.07 0.04 0.03 0.03 0.02 0.01 0.01 0.01 0.01 0.01 0.01 0.00 0.00 0.00 0.00 0.02 0.05 0.07 0.07 0.05 0.05 0.09 0.11 0.10 0.09 0.10 0.17 0.31 0.42 0.41 0.30 0.27 0.32 0.44 0.46 0.39 0.35 0.29
0.18 0.16 0.12 0.10 0.08 0.05 0.03 0.02 0.01 0.01 0.01 0.01 0.01 0.02 0.03 0.02 0.00 0.00 0.00 0.01 0.03 0.05 0.06 0.07 0.10 0.12 0.11 0.09 0.07 0.07 0.10 0.19 0.30 0.36 0.40 0.36 0.37 0.42 0.50 0.51 0.44 0.37 0.27
0.16 0.11 0.08 0.06 0.04 0.02 0.01 0.01 0.01 0.01 0.02 0.02 0.01 0.02 0.04 0.04 0.01 0.00 0.00 0.01 0.02 0.03 0.03 0.05 0.08 0.11 0.10 0.10 0.10 0.12 0.15 0.22 0.28 0.40 0.46 0.52 0.56 0.55 0.50 0.46 0.47 0.44 0.37
0.07 0.04 0.03 0.02 0.01 0.01 0.01 0.01 0.01 0.01 0.02 0.02 0.02 0.02 0.04 0.06 0.02 0.00 0.01 0.02 0.03 0.02 0.02 0.04 0.07 0.09 0.10 0.10 0.11 0.16 0.23 0.28 0.42 0.58 0.68 0.73 0.66 0.59 0.53 0.49 0.52 0.53 0.50
0.03 0.02 0.03 0.02 0.01 0.01 0.01 0.01 0.02 0.02 0.03 0.04 0.03 0.04 0.05 0.04 0.02 0.00 0.01 0.03 0.05 0.05 0.07 0.10 0.13 0.13 0.14 0.11 0.12 0.21 0.33 0.43 0.63 0.83 0.82 0.67 0.52 0.42 0.40 0.42 0.42 0.47 0.52
0.02 0.03 0.03 0.02 0.01 0.01 0.02 0.03 0.03 0.04 0.05 0.05 0.05 0.05 0.05 0.05 0.03 0.01 0.00 0.01 0.03 0.08 0.14 0.16 0.18 0.19 0.17 0.16 0.20 0.32 0.43 0.60 0.76 0.84 0.71 0.53 0.41 0.35 0.33 0.32 0.32 0.35 0.39
0.04 0.04 0.03 0.02 0.01 0.01 0.02 0.03 0.04 0.04 0.04 0.04 0.05 0.05 0.05 0.05 0.04 0.01 0.01 0.01 0.03 0.08 0.16 0.22 0.24 0.22 0.24 0.31 0.40 0.51 0.60 0.68 0.77 0.71 0.55 0.46 0.41 0.35 0.30 0.28 0.28 0.30 0.32
0.08 0.06 0.05 0.04 0.02 0.02 0.02 0.02 0.03 0.04 0.04 0.05 0.05 0.05 0.06 0.06 0.05 0.04 0.03 0.04 0.06 0.09 0.15 0.26 0.35 0.38 0.40 0.47 0.54 0.61 0.65 0.73 0.71 0.55 0.43 0.38 0.35 0.31 0.29 0.26 0.26 0.26 0.29
0.08 0.07 0.06 0.03 0.02 0.03 0.03 0.01 0.02 0.03 0.01 0.02 0.04 0.04 0.07 0.07 0.05 0.06 0.08 0.09 0.12 0.15 0.17 0.25 0.34 0.39 0.43 0.48 0.49 0.54 0.57 0.56 0.55 0.47 0.40 0.34 0.31 0.28 0.28 0.27 0.25 0.23 0.26
0.06 0.06 0.05 0.02 0.02 0.02 0.04 0.06 0.02 0.00 0.00 0.01 0.02 0.03 0.04 0.06 0.05 0.04 0.06 0.10 0.14 0.18 0.20 0.30 0.42 0.49 0.53 0.54 0.51 0.52 0.53 0.49 0.46 0.43 0.40 0.35 0.31 0.29 0.28 0.27 0.25 0.24 0.26
0.03 0.04 0.04 0.03 0.03 0.03 0.04 0.09 0.13 0.07 0.02 0.01 0.01 0.02 0.03 0.04 0.05 0.04 0.05 0.09 0.12 0.16 0.19 0.33 0.47 0.60 0.63 0.58 0.52 0.50 0.54 0.55 0.52 0.47 0.40 0.35 0.31 0.28 0.25 0.24 0.23 0.23 0.23
0.04 0.04 0.03 0.05 0.04 0.02 0.04 0.06 0.12 0.15 0.13 0.10 0.05 0.02 0.03 0.05 0.07 0.06 0.07 0.08 0.10 0.14 0.23 0.37 0.49 0.56 0.59 0.60 0.55 0.52 0.55 0.58 0.54 0.46 0.40 0.36 0.31 0.25 0.21 0.22 0.22 0.19 0.17
0.03 0.05 0.04 0.03 0.03 0.02 0.03 0.04 0.06 0.09 0.12 0.12 0.09 0.04 0.04 0.06 0.09 0.11 0.10 0.09 0.13 0.20 0.28 0.36 0.45 0.47 0.46 0.47 0.46 0.45 0.49 0.53 0.49 0.42 0.37 0.34 0.29 0.23 0.22 0.20 0.16 0.14 0.12
0.02 0.01 0.01 0.01 0.02 0.02 0.02 0.03 0.04 0.06 0.09 0.11 0.09 0.05 0.05 0.08 0.11 0.14 0.13 0.11 0.13 0.18 0.25 0.33 0.40 0.38 0.36 0.34 0.32 0.32 0.34 0.36 0.35 0.32 0.30 0.27 0.25 0.23 0.20 0.16 0.14 0.12 0.11
0.01 0.01 0.00 0.01 0.02 0.02 0.01 0.02 0.02 0.04 0.06 0.08 0.07 0.06 0.10 0.11 0.16 0.20 0.22 0.22 0.21 0.21 0.22 0.24 0.28 0.32 0.31 0.28 0.24 0.22 0.22 0.23 0.23 0.24 0.24 0.24 0.22 0.19 0.15 0.11 0.08 0.07 0.06
0.00 0.00 0.01 0.01 0.01 0.01 0.01 0.00 0.00 0.01 0.03 0.05 0.06 0.06 0.11 0.12 0.15 0.19 0.25 0.30 0.30 0.29 0.25 0.23 0.22 0.25 0.29 0.28 0.22 0.18 0.17 0.17 0.19 0.21 0.23 0.22 0.19 0.14 0.10 0.07 0.05 0.04 0.03
0.00 0.00 0.00 0.00 0.00 0.00 0.00 0.00 0.00 0.00 0.01 0.03 0.05 0.07 0.08 0.11 0.15 0.18 0.24 0.29 0.32 0.30 0.25 0.22 0.22 0.25 0.27 0.27 0.23 0.17 0.14 0.14 0.15 0.17 0.21 0.22 0.17 0.12 0.07 0.04 0.03 0.02 0.02
0.00 0.00 0.00 0.00 0.00 0.00 0.00 0.00 0.00 0.00 0.00 0.01 0.02 0.05 0.07 0.11 0.13 0.16 0.21 0.25 0.28 0.30 0.28 0.27 0.26 0.26 0.25 0.24 0.21 0.13 0.10 0.11 0.11 0.13 0.17 0.19 0.15 0.11 0.06 0.04 0.02 0.02 0.01
0.00 0.00 0.00 0.00 0.00 0.00 0.00 0.00 0.00 0.00 0.00 0.00 0.01 0.02 0.03 0.06 0.09 0.11 0.14 0.18 0.21 0.24 0.24 0.24 0.24 0.22 0.20 0.17 0.14 0.10 0.09 0.10 0.11 0.12 0.13 0.14 0.12 0.10 0.07 0.05 0.03 0.02 0.02
0.00 0.00 0.00 0.00 0.00 0.00 0.00 0.00 0.00 0.00 0.00 0.00 0.01 0.01 0.01 0.02 0.04 0.06 0.08 0.09 0.12 0.16 0.19 0.20 0.20 0.17 0.12 0.08 0.07 0.07 0.07 0.05 0.04 0.06 0.10 0.13 0.11 0.09 0.08 0.07 0.04 0.03 0.02